Карточка аэропорта URWI

Внимание!
Информация на этой странице в стадии наполнения.
Если вы не увидели какой-то информации, или заметили неточность - пожалуйста сообщите нам!
Спасибо!
Команда RU-STAFF
Название аэропортаЭлиста
Название аэропорта (англ.)Elista
Превышение502 ft. (153 m.)
Координаты46°22.476', 44°19.428'
Высота перехода4000 ft
Эшелон переходаFL50 (QNH >= 1013); FL60 (QNH 977-1012); FL70 (QNH < 977)
Коды ответчика2420-2427
Зона ОрВДРостов-на-Дону РПИ (URRV)
Данные METARURWI 271130Z 00000MPS 9000 OVC005 M04/M05 Q1016 R09/190060 NOSIG
Проноз погоды (TAF)URWI 010200Z 0103/0312 19003G10MPS 6000 BKN016 TEMPO 0103/0106 23006G12MPS 0300 FG BKN002 BECMG 0106/0108 26006G12MPS
NOTAMshow/hide NOTAM
AWOS   TABLE

Информация о ВПП

ВПП Длина ВПП (м.) Покрытие Курс ВПП Частота ILS
093200Асфальтобетон90108.5
273200Асфальтобетон270 

Диспетчерские позиции




Спутниковое изображение